Content
SEND FEEDBACK

Daily
Averages
Monthly
Summary
United States of America

AMISSVILLE, VIRGINIA


Home > North America > United States > Virginia
Elevation: 55 feet     Latitude: 38 41N     Longitude: 078 01W

WEATHER
 
SELECT A DAY
Number of Records: 391,938;   Date Range: 5/11/98 - 8/28/14
 
SHARE

PRINT THIS DATA

[ ← Previous Day ]
WEATHER ALMANAC - JANUARY 31, 2013
[ Next Day → ]
[ °C ]   °F
Weather ElementAverageHighLow
Temperature44.6 °F59 °F (12:35 am)30.2 °F (11:35 pm)
Dewpoint9.3 °F59 °F (12:35 am)-45.4 °F (11:55 pm)
Humidity38 %100 % (12:35 am)4 % (5:35 pm)
Barometer29.65 in29.92 in (10:15 pm)29.22 in (2:35 am)
Wind Speed12 mph20.7 mph (1:35 am)
Wind Gust33.4 mph (1:55 am)
Weather ElementAverage
Visibility9.9 mi
Wind DirectionSW (229.9 °)

Weather ElementTotal
Precipitation0.65 in
Heating Degree Days20.4 (Base 65)
Averaged from 67 records on January 31, 2013
WEATHER CONDITIONS BREAKOUT
WIND DIRECTION BREAKOUT
WEATHER BY HOUR - JANUARY 31, 2013
[ °C ]   °F
Local TimeTemperatureDewpointHumidityBarometerVisibilityWind DirectionWind SpeedGust SpeedPrecipitationEventsConditions
12:35 AM59.0 °F59.0 °F100 %29.25 in4.0 miWNW (300°)10.4 mph25.3 mph0.22 inRainHeavy Rain
12:55 AM59.0 °F59.0 °F100 %29.26 in10.0 miWSW (250°)6.9 mph0.24 inRainLight Rain
1:15 AM59.0 °F59.0 °F100 %29.27 in10.0 miWSW (240°)5.8 mph0.03 inRainRain
1:35 AM59.0 °F55.4 °F88 %29.27 in10.0 miSW (230°)20.7 mph28.8 mph0.07 inRainLight Rain
1:55 AM59.0 °F51.8 °F77 %29.26 in10.0 miSW (220°)19.6 mph33.4 mph0.07 inRainLight Rain
2:35 AM57.2 °F51.8 °F82 %29.22 in10.0 miSSW (210°)11.5 mph23.0 mph0.01 in
2:55 AM55.4 °F51.8 °F88 %29.24 in10.0 miSSW (210°)12.7 mph0.01 in
3:15 AM55.4 °F53.6 °F94 %29.24 in10.0 miSW (220°)16.1 mph21.9 mph
3:35 AM57.2 °F50.0 °F77 %29.26 in10.0 miSW (230°)16.1 mph23.0 mph
3:55 AM55.4 °F46.4 °F72 %29.27 in10.0 miWSW (250°)13.8 mph20.7 mph
4:15 AM55.4 °F44.6 °F67 %29.29 in10.0 miWSW (250°)15.0 mph23.0 mph
4:35 AM51.8 °F39.2 °F62 %29.34 in10.0 miWNW (290°)16.1 mph23.0 mph
4:55 AM51.8 °F35.6 °F54 %29.36 in10.0 miWest (280°)13.8 mph24.2 mph
5:15 AM50.0 °F35.6 °F58 %29.38 in10.0 miWNW (290°)11.5 mph17.3 mph
5:35 AM48.2 °F33.8 °F58 %29.40 in10.0 miWest (270°)17.3 mph23.0 mph
5:55 AM48.2 °F33.8 °F58 %29.42 in10.0 miWNW (290°)16.1 mph
6:15 AM48.2 °F30.2 °F50 %29.45 in10.0 miWNW (290°)13.8 mph21.9 mph
6:35 AM46.4 °F28.4 °F50 %29.47 in10.0 miWNW (290°)17.3 mph25.3 mph
6:55 AM46.4 °F26.6 °F46 %29.50 in10.0 miWNW (290°)19.6 mph25.3 mph
7:15 AM44.6 °F28.4 °F53 %29.52 in10.0 miWNW (300°)11.5 mph21.9 mph
7:55 AM42.8 °F24.8 °F49 %29.57 in10.0 miWNW (290°)11.5 mph21.9 mph
8:15 AM42.8 °F23.0 °F46 %29.59 in10.0 miWest (270°)15.0 mph25.3 mph
8:35 AM42.8 °F24.8 °F49 %29.60 in10.0 miWest (270°)15.0 mph21.9 mph
8:55 AM44.6 °F24.8 °F46 %29.63 in10.0 miWest (270°)11.5 mph26.5 mph
9:15 AM44.6 °F24.8 °F46 %29.64 in10.0 miWNW (290°)12.7 mph24.2 mph
9:35 AM44.6 °F24.8 °F46 %29.65 in10.0 miWest (280°)9.2 mph
9:55 AM44.6 °F21.2 °F39 %29.66 in10.0 miWest (260°)20.7 mph27.6 mph
10:15 AM44.6 °F24.8 °F46 %29.68 in10.0 miWest (270°)11.5 mph18.4 mph
10:35 AM44.6 °F24.8 °F46 %29.68 in10.0 miWSW (250°)18.4 mph23.0 mph
10:55 AM44.6 °F19.4 °F37 %29.70 in10.0 miWSW (250°)19.6 mph27.6 mph
11:15 AM44.6 °F19.4 °F37 %29.71 in10.0 miWest (280°)15.0 mph31.1 mph
11:35 AM44.6 °F19.4 °F37 %29.71 in10.0 miWNW (290°)12.7 mph19.6 mph
11:55 AM44.6 °F17.6 °F34 %29.71 in10.0 miWest (270°)12.7 mph26.5 mph
12:15 PM44.6 °F17.6 °F34 %29.71 in10.0 miWest (270°)15.0 mph32.2 mph
12:35 PM44.6 °F17.6 °F34 %29.71 inNorth
12:55 PM46.4 °F21.2 °F37 %29.71 in10.0 miWest (270°)15.0 mph28.8 mph
1:15 PM46.4 °F17.6 °F32 %29.71 in10.0 miWest (280°)16.1 mph28.8 mphScattered Clouds
1:35 PM44.6 °F17.6 °F34 %29.72 in10.0 miWNW (290°)17.3 mph27.6 mphScattered Clouds
1:55 PM46.4 °F19.4 °F34 %29.72 in10.0 miWest (260°)15.0 mph20.7 mphMostly Cloudy
2:15 PM46.4 °F19.4 °F34 %29.74 in10.0 miWest (280°)15.0 mph28.8 mphScattered Clouds
2:35 PM44.6 °F17.6 °F34 %29.76 in10.0 miWNW (300°)17.3 mph25.3 mphMostly Cloudy
2:55 PM42.8 °F17.6 °F36 %29.77 in10.0 miWest (270°)15.0 mph24.2 mphMostly Cloudy
3:15 PM44.6 °F17.6 °F34 %29.78 in10.0 miWest (260°)18.4 mph24.2 mphOvercast
3:35 PM42.8 °F17.6 °F36 %29.79 in10.0 miWest (270°)17.3 mph25.3 mphOvercast
3:55 PM42.8 °F15.8 °F34 %29.79 in10.0 miWest (270°)15.0 mph26.5 mphMostly Cloudy
4:15 PM42.8 °F15.8 °F34 %29.80 in10.0 miWest (280°)11.5 mph16.1 mphOvercast
4:35 PM42.8 °F-5.8 °F13 %29.82 in10.0 miWest (270°)10.4 mph16.1 mphOvercast
4:55 PM41.0 °F-11.2 °F11 %29.82 in10.0 miWest (280°)12.7 mph21.9 mphMostly Cloudy
5:15 PM41.0 °F-11.2 °F11 %29.83 in10.0 miWest (260°)9.2 mphMostly Cloudy
5:35 PM41.0 °F-31.0 °F4 %29.85 in10.0 miWest (260°)12.7 mph27.6 mphScattered Clouds
5:55 PM39.2 °F-41.8 °F4 %29.86 in10.0 miWest (270°)16.1 mph19.6 mphScattered Clouds
6:15 PM39.2 °F-41.8 °F4 %29.87 in10.0 miWest (280°)20.7 mph25.3 mphScattered Clouds
6:35 PM39.2 °F-41.8 °F4 %29.88 in10.0 miWest (280°)13.8 mph26.5 mphClear
6:55 PM37.4 °F-41.8 °F4 %29.89 in10.0 miWNW (300°)9.2 mph18.4 mphClear
7:15 PM37.4 °F-41.8 °F4 %29.90 in10.0 miWNW (300°)10.4 mphScattered Clouds
7:35 PM37.4 °F-41.8 °F4 %29.90 in10.0 miWNW (300°)9.2 mphScattered Clouds
7:55 PM37.4 °F-41.8 °F4 %29.90 in10.0 miWNW (290°)5.8 mphScattered Clouds
8:15 PM37.4 °F-43.6 °F4 %29.90 in10.0 miCalmOvercast
8:35 PM33.8 °F-43.6 °F4 %29.90 in10.0 miCalmScattered Clouds
9:15 PM35.6 °F-38.2 °F4 %29.91 in10.0 miWest (270°)4.6 mphScattered Clouds
9:35 PM35.6 °F-41.8 °F4 %29.91 in10.0 miCalmMostly Cloudy
9:55 PM35.6 °F-41.8 °F4 %29.91 in10.0 miCalmMostly Cloudy
10:15 PM33.8 °F-40.0 °F4 %29.92 in10.0 miCalmMostly Cloudy
10:35 PM32.0 °F-41.8 °F4 %29.92 in10.0 miCalmScattered Clouds
11:15 PM32.0 °F-43.6 °F4 %29.92 in10.0 miCalmMostly Cloudy
11:35 PM30.2 °F-43.6 °F4 %29.92 in10.0 miCalmOvercast
11:55 PM30.2 °F-45.4 °F4 %29.91 in10.0 miCalmMostly Cloudy
Hourly data recorded from KCJR, located miles away from Amissville, Virginia







STORIES FROM OUR PARTNERS